Find Starlink 34764

NORAD ID: 65098 Int'l Des: 2025-167 Owner: SPXS Country: US Constellation: starlink operational
LEOCIRCULAR

現在のビュー

3D地球を読み込み中...

About Starlink 34764

Starlink 34764 (NORAD 65098) is a starlink constellation satellite (v2 mini) launched Aug 4, 2025 by SPXS of US. It operates in LEO, CIRCULAR orbit with a mass of 575.00 kg.

次回通過

Passes for default location (London). Set your location on the main map for personalized predictions.

高度履歴

Loading altitude history...

軌道要素

1 65098U 25167W 26264.19360866 .00023510 00000-0 70468-3 0 9997
2 65098 53.1554 194.2150 0002609 83.4043 276.7257 15.34402386 63476
Epoch: Sep 21, 2026 • Age: 12 hours

現在のステータス

高度 463.2 km
遠地点 / 近地点 N/A
速度 7.64 km/s
衛星直下点 29.07°N, 103.81°E
打ち上げ日 Aug 4, 2025
運用期間 1.1 years
タイプ internet

技術仕様

分類 Payload
質量 575.00 kg
乾燥質量 530.00 kg
長さ 0.30 m
スパン 29.00 m
形状 ? Box + pan
製造者 SPXS
バスタイプ Starlink V2MO
フェーズステータス In Orbit
所有者/国 SPXS/US

Most Searched